NATO41 EGFF-EGPH

Flight info

Callsign NATO41
Flight time 0h 38m
Altitude 17500
Route EGFF EGPH
Aircraft F35/M-SBDGRY/S

Departure

Time 2026-04-23 15:44
Airport Cardiff International Airport (EGFF)

Arrival

Time 2026-04-23 16:22
Airport Edinburgh Airport (EGPH)
Time Latitude Longitude Altitude Speed Heading
2026-04-23 15:41 51.40149 -3.35408 211 ft 0 kts 246°
2026-04-23 15:43 51.40112 -3.35498 210 ft 13 kts 223°
2026-04-23 15:43 51.40100 -3.35510 210 ft 12 kts 204°
2026-04-23 15:43 51.39987 -3.35393 209 ft 14 kts 96°
2026-04-23 15:43 51.39959 -3.35278 211 ft 0 kts 116°
2026-04-23 15:44 51.39596 -3.34108 429 ft 226 kts 113°
2026-04-23 15:44 51.38962 -3.31792 1684 ft 360 kts 108°
2026-04-23 15:44 51.39498 -3.27643 6040 ft 458 kts 56°
2026-04-23 15:45 51.42529 -3.24168 9386 ft 610 kts 22°
2026-04-23 15:45 51.46463 -3.22896 11251 ft 553 kts
2026-04-23 15:45 51.50371 -3.22432 12307 ft 571 kts
2026-04-23 15:45 51.54315 -3.21657 13077 ft 574 kts 16°
2026-04-23 15:46 51.57947 -3.19136 13655 ft 571 kts 31°
2026-04-23 15:46 51.61308 -3.15873 14489 ft 572 kts 36°
2026-04-23 15:46 51.64519 -3.12052 15235 ft 575 kts 41°
2026-04-23 15:46 51.67530 -3.07782 15722 ft 578 kts 46°
2026-04-23 15:47 51.70319 -3.03143 15916 ft 556 kts 50°
2026-04-23 15:47 51.72794 -2.98357 15970 ft 555 kts 54°
2026-04-23 15:47 51.75284 -2.93586 15920 ft 559 kts 40°
2026-04-23 15:47 51.78615 -2.90267 15035 ft 563 kts 30°
2026-04-23 15:48 51.82144 -2.87425 15557 ft 565 kts 26°
2026-04-23 15:48 51.85787 -2.84950 15829 ft 567 kts 22°
2026-04-23 15:48 51.89501 -2.82831 15921 ft 569 kts 19°
2026-04-23 15:48 51.93311 -2.81041 15930 ft 569 kts 16°
2026-04-23 15:49 51.97223 -2.80153 16021 ft 574 kts
2026-04-23 15:49 52.01209 -2.80472 15976 ft 575 kts 357°
2026-04-23 15:49 52.05211 -2.80784 15993 ft 572 kts
2026-04-23 15:49 52.09174 -2.80320 16649 ft 570 kts
2026-04-23 15:50 52.13070 -2.79878 17431 ft 568 kts
2026-04-23 15:50 52.17017 -2.79652 18038 ft 568 kts
2026-04-23 15:50 52.20965 -2.79223 17990 ft 567 kts
2026-04-23 15:50 52.24917 -2.78938 17930 ft 569 kts
2026-04-23 15:51 52.28865 -2.78578 17908 ft 569 kts
2026-04-23 15:51 52.32823 -2.78235 17911 ft 569 kts
2026-04-23 15:51 52.36780 -2.77910 17902 ft 570 kts
2026-04-23 15:51 52.40736 -2.77553 17904 ft 570 kts
2026-04-23 15:52 52.44704 -2.77218 17900 ft 570 kts
2026-04-23 15:52 52.48668 -2.76874 17901 ft 569 kts
2026-04-23 15:52 52.52640 -2.76527 17913 ft 571 kts
2026-04-23 15:52 52.56617 -2.76185 17921 ft 571 kts
2026-04-23 15:53 52.60582 -2.76004 17925 ft 571 kts
2026-04-23 15:53 52.64498 -2.76333 17931 ft 572 kts 352°
2026-04-23 15:53 52.68419 -2.77595 17486 ft 573 kts 347°
2026-04-23 15:53 52.72353 -2.78820 17117 ft 574 kts 353°
2026-04-23 15:54 52.76310 -2.79753 16998 ft 575 kts 351°
2026-04-23 15:54 52.80260 -2.80903 16955 ft 575 kts 351°
2026-04-23 15:54 52.84205 -2.81915 16946 ft 575 kts 351°
2026-04-23 15:54 52.88161 -2.82997 16939 ft 575 kts 351°
2026-04-23 15:55 52.92113 -2.84071 16938 ft 575 kts 351°
2026-04-23 15:55 52.96071 -2.85127 16933 ft 574 kts 351°
2026-04-23 15:55 53.00017 -2.86210 16928 ft 574 kts 351°
2026-04-23 15:55 53.03959 -2.87263 16932 ft 574 kts 352°
2026-04-23 15:56 53.07923 -2.88118 16936 ft 573 kts 354°
2026-04-23 15:56 53.11909 -2.88524 16949 ft 574 kts
2026-04-23 15:56 53.15903 -2.88315 16937 ft 573 kts
2026-04-23 15:56 53.19902 -2.88365 16936 ft 573 kts 358°
2026-04-23 15:57 53.23753 -2.88428 16940 ft 573 kts
2026-04-23 15:57 53.27865 -2.88405 17493 ft 570 kts 360°
2026-04-23 15:57 53.31828 -2.88476 18094 ft 569 kts
2026-04-23 15:57 53.35723 -2.88480 18327 ft 568 kts
2026-04-23 15:58 53.39687 -2.88512 18398 ft 568 kts
2026-04-23 15:58 53.43644 -2.88547 18416 ft 568 kts
2026-04-23 15:58 53.47592 -2.88566 18422 ft 569 kts
2026-04-23 15:58 53.51561 -2.88600 18431 ft 569 kts
2026-04-23 15:59 53.55530 -2.88628 18444 ft 569 kts
2026-04-23 15:59 53.59497 -2.88655 18439 ft 569 kts
2026-04-23 15:59 53.63455 -2.88685 18438 ft 569 kts
2026-04-23 15:59 53.67367 -2.88713 18432 ft 569 kts
2026-04-23 16:00 53.71322 -2.88742 18433 ft 570 kts
2026-04-23 16:00 53.75292 -2.88771 18441 ft 569 kts
2026-04-23 16:00 53.79255 -2.88800 18435 ft 569 kts
2026-04-23 16:00 53.83216 -2.88829 18437 ft 570 kts
2026-04-23 16:01 53.87184 -2.88858 18435 ft 570 kts
2026-04-23 16:01 53.91148 -2.88887 18435 ft 570 kts
2026-04-23 16:01 53.95118 -2.88916 18431 ft 571 kts 360°
2026-04-23 16:01 53.99087 -2.88946 18423 ft 571 kts 360°
2026-04-23 16:02 54.03059 -2.88975 18424 ft 570 kts
2026-04-23 16:02 54.07013 -2.89004 18434 ft 569 kts 360°
2026-04-23 16:02 54.10967 -2.89034 18420 ft 568 kts 360°
2026-04-23 16:02 54.14914 -2.89063 18420 ft 566 kts 360°
2026-04-23 16:03 54.18853 -2.89092 18422 ft 565 kts 360°
2026-04-23 16:03 54.22785 -2.89122 18413 ft 565 kts 360°
2026-04-23 16:03 54.26706 -2.89151 18425 ft 563 kts 360°
2026-04-23 16:03 54.30616 -2.89180 18425 ft 563 kts 360°
2026-04-23 16:04 54.34539 -2.89210 18428 ft 563 kts 360°
2026-04-23 16:04 54.38476 -2.89239 18434 ft 563 kts 360°
2026-04-23 16:04 54.42393 -2.89269 18427 ft 563 kts 360°
2026-04-23 16:04 54.46445 -2.89299 18401 ft 625 kts 360°
2026-04-23 16:05 54.49450 -2.89322 18429 ft 690 kts 360°
2026-04-23 16:05 54.56022 -2.89372 18439 ft 710 kts 360°
2026-04-23 16:05 54.60935 -2.89409 18423 ft 716 kts 360°
2026-04-23 16:05 54.65926 -2.89447 18439 ft 718 kts 360°
2026-04-23 16:06 54.70908 -2.89485 18448 ft 719 kts 360°
2026-04-23 16:06 54.75944 -2.89524 18444 ft 720 kts 360°
2026-04-23 16:06 54.80946 -2.89562 18443 ft 720 kts 360°
2026-04-23 16:06 54.85981 -2.89776 18431 ft 721 kts 354°
2026-04-23 16:07 54.90440 -2.91253 18459 ft 600 kts 342°
2026-04-23 16:07 54.94342 -2.93981 18449 ft 607 kts 335°
2026-04-23 16:07 54.98153 -2.97215 18439 ft 612 kts 333°
2026-04-23 16:07 55.02090 -3.00124 18454 ft 614 kts 339°
2026-04-23 16:08 55.04729 -3.01906 18452 ft 615 kts 336°
2026-04-23 16:08 55.08663 -3.04899 18449 ft 617 kts 336°
2026-04-23 16:08 55.12638 -3.07728 18447 ft 617 kts 337°
2026-04-23 16:08 55.16589 -3.10652 18448 ft 616 kts 336°
2026-04-23 16:09 55.20547 -3.13552 18452 ft 616 kts 337°
2026-04-23 16:09 55.24506 -3.16448 18464 ft 616 kts 336°
2026-04-23 16:09 55.28520 -3.19091 18464 ft 617 kts 346°
2026-04-23 16:09 55.32749 -3.20177 18521 ft 617 kts 358°
2026-04-23 16:10 55.37043 -3.19804 18530 ft 618 kts
2026-04-23 16:10 55.41304 -3.18748 18491 ft 617 kts
2026-04-23 16:10 55.45561 -3.17871 18481 ft 617 kts
2026-04-23 16:10 55.49851 -3.17377 18468 ft 616 kts
2026-04-23 16:11 55.54116 -3.16588 18465 ft 616 kts
2026-04-23 16:11 55.58390 -3.15989 18464 ft 617 kts
2026-04-23 16:11 55.62605 -3.15288 18471 ft 616 kts
2026-04-23 16:11 55.66862 -3.14622 18478 ft 616 kts
2026-04-23 16:12 55.71198 -3.14574 18508 ft 616 kts 354°
2026-04-23 16:12 55.75236 -3.16047 18353 ft 554 kts 341°
2026-04-23 16:12 55.78432 -3.18768 17128 ft 479 kts 329°
2026-04-23 16:12 55.81116 -3.21804 15792 ft 432 kts 326°
2026-04-23 16:13 55.83480 -3.24581 15441 ft 385 kts 326°
2026-04-23 16:13 55.87860 -3.29739 15236 ft 376 kts 326°
2026-04-23 16:13 55.90042 -3.32312 15133 ft 376 kts 326°
2026-04-23 16:14 55.92215 -3.34874 14564 ft 373 kts 326°
2026-04-23 16:14 55.94356 -3.37399 13569 ft 365 kts 325°
2026-04-23 16:14 55.96468 -3.39886 12604 ft 362 kts 325°
2026-04-23 16:14 55.98560 -3.42351 11691 ft 358 kts 325°
2026-04-23 16:15 56.00617 -3.44773 10825 ft 353 kts 325°
2026-04-23 16:15 56.02201 -3.47902 9663 ft 341 kts 287°
2026-04-23 16:15 56.02020 -3.51911 8475 ft 329 kts 248°
2026-04-23 16:15 56.01213 -3.55725 7703 ft 325 kts 248°
2026-04-23 16:16 56.00318 -3.59410 6958 ft 321 kts 235°
2026-04-23 16:16 55.98707 -3.61867 6280 ft 297 kts 203°
2026-04-23 16:16 55.96767 -3.62286 5750 ft 274 kts 169°
2026-04-23 16:16 55.95120 -3.60916 5370 ft 265 kts 148°
2026-04-23 16:17 55.93584 -3.59094 5005 ft 260 kts 147°
2026-04-23 16:17 55.92108 -3.57306 4652 ft 248 kts 147°
2026-04-23 16:17 55.90868 -3.55424 4174 ft 232 kts 120°
2026-04-23 16:17 55.90624 -3.52608 3289 ft 237 kts 86°
2026-04-23 16:18 55.90999 -3.49849 2379 ft 209 kts 72°
2026-04-23 16:18 55.91562 -3.47707 1826 ft 177 kts 64°
2026-04-23 16:18 55.92163 -3.45787 1514 ft 174 kts 62°
2026-04-23 16:18 55.92768 -3.43926 1239 ft 171 kts 62°
2026-04-23 16:19 55.93371 -3.42080 919 ft 167 kts 60°
2026-04-23 16:19 55.93931 -3.40413 539 ft 147 kts 60°
2026-04-23 16:19 55.94427 -3.38946 203 ft 132 kts 59°
2026-04-23 16:19 55.94848 -3.37701 115 ft 120 kts 59°
2026-04-23 16:20 55.95816 -3.36400 967 ft 269 kts 346°
2026-04-23 16:20 55.96932 -3.38606 1096 ft 223 kts 262°
2026-04-23 16:20 55.96680 -3.41041 1276 ft 196 kts 255°
2026-04-23 16:20 55.96200 -3.43201 1226 ft 188 kts 211°
2026-04-23 16:21 55.94950 -3.43261 1140 ft 184 kts 168°
2026-04-23 16:21 55.93818 -3.42517 757 ft 177 kts 122°
2026-04-23 16:21 55.93869 -3.40567 417 ft 170 kts 59°
2026-04-23 16:21 55.94457 -3.38855 167 ft 143 kts 59°
2026-04-23 16:22 55.94850 -3.37698 115 ft 70 kts 59°
2026-04-23 16:22 55.95067 -3.37053 111 ft 63 kts 58°
2026-04-23 16:22 55.95261 -3.36450 106 ft 26 kts 93°
2026-04-23 16:22 55.95169 -3.36327 107 ft 0 kts 148°
2026-04-23 16:23 55.95136 -3.36223 106 ft 21 kts 105°
2026-04-23 16:23 55.95078 -3.35936 104 ft 25 kts 121°
2026-04-23 16:24 55.95050 -3.35674 107 ft 18 kts 123°
2026-04-23 16:24 55.94987 -3.35473 108 ft 19 kts 119°
2026-04-23 16:24 55.94922 -3.35259 109 ft 20 kts 118°
2026-04-23 16:24 55.94852 -3.35028 111 ft 21 kts 117°
2026-04-23 16:25 55.94881 -3.34868 110 ft 15 kts 27°
2026-04-23 16:25 55.94982 -3.34768 108 ft 14 kts 28°
2026-04-23 16:25 55.94988 -3.34762 108 ft 0 kts 28°